STARLINK-1766 (46677 NORAD) Tracking and Keplerian Element Data
This shows tracking and keplerian element data for the satellite.
Feedback or suggestion? Click here.
Element | Value |
Catalog | 46677 |
Name | STARLINK-1766 |
Epoch Orbit | 1523 |
Epoch Day | 21.16668981 |
Epoch Year | 2021 |
RAAN | 12.1794 |
Inclination | 53.056 |
Eccentricity | 0.0001449 |
Argument of Perigee | 61.9088 |
Mean Anonmoly | 89.6043 |
Mean Motion | 15.06414397 |
Decay Rate | -0.00030889 |
L1 | 1 46677U 20073H 21021.16668981 -.00030889 00000-0 -20630-2 0 9996 |
L2 | 2 46677 53.0560 12.1794 0001449 61.9088 89.6043 15.06414397 15236 |
Live tracking and technical data element details for STARLINK-1766 (NORAD 46677). STARLINK-1766 can be tracked NOW for your location showing map with azimuth and elevation plus other details from your city location.
Track the satellite on the map from your city or location and see movement details for azimuth, elevation, latitude, longitude, range, height, and movement on the map or in text.
IsCatalogInMostPopularTable: catalog: 46677, numindb: 29
Update: records affected: 1
GetName: 46677 STARLINK-1766
Hit Count: updated at: Fri, 22 Jan 2021 15:28:05 GMT